Location: LC-39B
(28.6273°N, 80.6211°W)
Time: 10:36:15
(UTC+00:00)

ISS - Visible Passes

Search period start: 18 April 2014 00:00
Search period end: 28 April 2014 00:00
Orbit: 414 x 419 km, 51.6° (Epoch: 18 April)

Date Brightness Start Highest point End Pass type
(mag) Time Alt. Az. Time Alt. Az. Time Alt. Az.
22 Apr 0.0 02:19:23 10° NNW 02:19:42 12° NNW 02:19:42 12° NNW visible
23 Apr -1.2 01:31:22 10° NNW 01:33:15 20° NNE 01:33:15 20° NNE visible
24 Apr -0.9 00:43:48 10° N 00:45:19 12° NE 00:46:49 10° ENE visible
24 Apr -0.2 02:18:59 10° NW 02:19:44 16° WNW 02:19:44 16° WNW visible
25 Apr -3.0 01:30:22 10° NW 01:33:21 64° N 01:33:21 64° N visible
26 Apr -2.3 00:41:59 10° NNW 00:45:05 35° NE 00:46:59 19° E visible
27 Apr -1.6 01:30:12 10° WNW 01:33:02 26° SW 01:33:36 24° SW visible
